Weather in Miskolc

Hungary     48˚06′12″N   20˚47′28″E
temp.,
°C
wind,
m/s
gust,
m/s
humid.,
%
clouds,
%
prec.,
mm/h
press.,
hPa
HPBL,
m
29 november, sun
sun2901:00−1˚ssw119251 0.0 102122
04:00−1˚ssw229394 0.0 102161
07:00−1˚s239796 0.0 1021145
10:00ssw348792 0.0 1021386
13:00+1˚sw237992 0.1 1021522
16:00+1˚ssw1285100 0.0 102198
19:00+1˚s1181100 0.1 102227
22:00sse2288100 0.1 102395
30 november, mon
mon3001:00s1195100 0.1 102480
04:00−1˚sse019596 0.1 102522
07:00−2˚nnw019576 0.1 102621
10:00+1˚ese007719 0.0 1028355
13:00+2˚s117041 0.0 1027658
16:00s227969 0.0 102722
19:00−1˚sw118276 0.0 102827
22:00−1˚ssw118449 0.0 102836
1 december, tue
tue101:00−2˚sw018732 0.0 102721
04:00−2˚sse11900 0.0 102621
07:00−3˚ese11910 0.0 102623
10:00e22760 0.0 1025354
13:00+1˚ene23661 0.0 1024544
16:00−1˚ne23790 0.0 102247
19:00−2˚nne23800 0.0 102364
22:00−2˚n337936 0.0 102365
2 december, wed
wed201:00−2˚n347631 0.0 102377
04:00−2˚n347121 0.0 102265
07:00−2˚n346630 0.0 102258
10:00+1˚ne345074 0.0 1022357
13:00+1˚ene344851 0.0 1020438
16:00−2˚nne236348 0.0 101933
19:00−1˚n225971 0.0 102032
22:00−1˚nne235791 0.0 102039
3 december, thu
thu301:00−2˚ne225779 0.0 101931
04:00−2˚nne225915 0.0 101838
07:00−1˚nne245756 0.0 1018103
10:00nne3450100 0.0 1017183
13:00+2˚nne4548100 0.0 1015251
16:00nne3560100 0.0 101479
19:00nne346490 0.0 101371
22:00nne346287 0.0 101263